www.pogodaiklimat.ru

Погода и климат >> Архив погоды >> Норвегия >> Гротли


ПОГОДА в Гротли

  • Прогноз погоды в Гротли
  • Монитор погоды в Гротли

АРХИВ ПОГОДЫ в Гротли

Время (UTC), дата Ветер
(напр.,м/с)
 
Видим.   Явления Облачность Т
(С)
Тd
(С)
f
(%)
Тe
(С)
Тes
(С)
Комфортность P
(гПа)
Po
(гПа)
Тmin
(С)
Tmax
(С)
R
(мм)
R24
(мм)
S
(см)
19 10.06 ЮЗ 2-4
{4}
н/о н/о +8.3 +1.1 60 +7 +7 1019.7 918.6
20 10.06 С 1-2
{3}
н/о н/о +7.6 +0.9 62 +7 +7 1020.3 918.9
21 10.06 СЗ 1-2
{2}
н/о н/о +6.7 +1.7 70 +6 +6 1021.1 919.3
22 10.06 СВ 1-1
{2}
н/о н/о +4.4 +0.9 78 +3 +3 1022.5 919.8
23 10.06 С 1-1
{2}
н/о н/о +1.3 -0.7 87 -1 -1 1024.1 920.1
00 11.06 СВ 1-2
{4}
н/о н/о +0.6 -1.0 89 -1 -1 1024.6 920.3
01 11.06 С 1-1
{2}
н/о н/о -0.5 -1.7 92 -3 -3 1025.0 920.3
02 11.06 штиль 0-1
{2}
н/о н/о -1.2 -2.3 92 -2 -2 1025.4 920.4
03 11.06 штиль 0-1
{1}
н/о н/о -1.3 -2.2 94 -3 -3 1025.7 920.6
04 11.06 штиль 0-1
{1}
н/о н/о -0.8 -1.7 94 -2 -2 1025.9 921.0
05 11.06 З 1-1
{1}
н/о н/о +6.0 +1.1 71 +5 +5 1023.7 921.4
06 11.06 ЮВ 4-6
{6}
н/о н/о +9.0 +1.4 59 +6 +6 1022.7 921.5 -1.6 +9.6
07 11.06 В 3-6
{6}
н/о н/о +10.3 +1.9 56 +9 +9 1022.3 921.6
08 11.06 В 4-6
{7}
н/о н/о +10.5 +2.0 56 +8 +8 1022.4 921.7
09 11.06 ЮВ 2-5
{7}
н/о н/о +13.1 +1.3 45 +13 +13 1021.6 921.8
10 11.06 В 3-5
{7}
н/о н/о +13.3 +0.4 41 +12 +12 1021.8 922.1
11 11.06 ЮВ 3-6
{7}
н/о н/о +14.4 0.0 37 +14 +14 1021.1 921.9
12 11.06 Ю 3-6
{7}
н/о н/о +15.2 -0.6 34 +15 +15 1020.7 921.7
13 11.06 В 3-5
{8}
н/о н/о +14.5 +0.4 38 +14 +14 1021.2 921.9
14 11.06 В 4-8
{9}
н/о н/о +16.3 +0.2 33 +16 +16 1020.4 921.8
15 11.06 В 4-8
{8}
н/о н/о +16.8 -0.4 31 +16 +16 1020.0 921.7
16 11.06 В 5-8
{9}
н/о н/о +15.5 -0.6 33 +14 +14 1020.6 921.8
17 11.06 В 5-8
{8}
н/о н/о +16.2 +1.6 37 +15 +15 1020.4 921.8
18 11.06 В 5-9
{9}
н/о н/о +15.7 +1.9 39 +15 +15 1020.9 922.1 +8.9 +17.2
19 11.06 В 4-6
{8}
н/о н/о +14.1 +2.4 45 +13 +13 1021.7 922.3
20 11.06 В 4-7
{7}
н/о н/о +13.0 +2.2 48 +12 +12 1022.3 922.5
21 11.06 В 4-6
{7}
н/о н/о +12.1 +2.4 51 +10 +10 1022.9 922.7
22 11.06 В 4-7
{7}
н/о н/о +11.4 +2.7 55 +9 +9 1023.2 922.8
23 11.06 В 3-6
{6}
н/о н/о +10.8 +2.7 57 +9 +9 1023.7 923.0
00 12.06 В 3-5
{8}
н/о н/о +10.5 +2.5 58 +9 +9 1023.8 923.0
01 12.06 Ю 1-2
{4}
н/о н/о +7.5 +2.9 73 +7 +7 1024.7 922.8
02 12.06 В 3-5
{6}
н/о н/о +10.2 +3.1 61 +8 +8 1023.2 922.4
03 12.06 В 4-6
{6}
н/о н/о +10.3 +3.4 62 +8 +8 1022.7 921.9
04 12.06 В 4-6
{7}
н/о н/о +10.2 +3.9 65 +8 +8 1022.8 922.0
05 12.06 В 4-7
{7}
н/о н/о +10.1 +4.2 67 +8 +8 1023.0 922.1
06 12.06 В 4-7
{7}
н/о н/о +10.4 +3.9 64 +8 +8 1022.6 921.9 +7.2 +15.9
07 12.06 В 6-8
{9}
н/о н/о +10.7 +3.0 59 +8 +8 1022.4 921.8
08 12.06 ЮВ 6-9
{10}
н/о н/о +10.9 +3.1 59 +8 +8 1022.1 921.6
09 12.06 ЮВ 5-9
{10}
н/о н/о +10.2 +3.4 63 +7 +7 1022.2 921.4
10 12.06 ЮВ 7-10
{10}
н/о н/о +9.8 +3.1 63 +6 +6 1022.0 921.2
11 12.06 ЮВ 6-9
{11}
н/о н/о +8.7 +4.0 72 +5 +5 1022.5 921.2
12 12.06 В 3-5
{11}
н/о н/о +8.4 +5.5 82 +6 +6 1021.5 920.2 0.9
13 12.06 В 5-8
{8}
н/о н/о +9.3 +4.8 73 +6 +6 1020.6 919.7 0.1
14 12.06 В 4-6
{9}
н/о н/о +9.1 +4.5 73 +6 +6 1019.9 919.0
15 12.06 В 4-5
{6}
н/о н/о +8.4 +4.2 75 +5 +5 1019.7 918.6
16 12.06 В 3-5
{6}
н/о н/о +8.0 +3.6 74 +5 +5 1019.5 918.3
17 12.06 В 3-5
{6}
н/о н/о +7.7 +3.2 73 +5 +5 1018.7 917.5
18 12.06 В 4-5
{9}
н/о н/о +8.0 +3.0 71 +5 +5 1017.9 916.9 +7.3 +11.1 1
19 12.06 В 3-6
{7}
н/о н/о +8.1 +3.2 71 +6 +6 1017.4 916.4
20 12.06 В 3-5
{6}
н/о н/о +7.6 +3.1 73 +5 +5 1017.0 915.9
21 12.06 В 4-5
{6}
н/о н/о +7.1 +3.1 76 +4 +4 1016.6 915.4
22 12.06 В 4-6
{7}
н/о н/о +6.6 +3.2 79 +3 +3 1016.4 915.0
23 12.06 В 4-8
{8}
н/о н/о +6.0 +3.7 85 +2 +2 1015.7 914.2
00 13.06 В 4-6
{8}
н/о н/о +5.5 +3.7 88 +1 +1 1015.2 913.6
01 13.06 В 4-6
{7}
н/о н/о +5.2 +3.6 89 +1 +1 1014.3 912.7 1
02 13.06 В 4-7
{8}
н/о н/о +5.3 +3.4 88 +1 +1 1013.6 912.1
03 13.06 В 4-6
{7}
н/о н/о +5.3 +3.5 88 +1 +1 1012.4 911.0 0.1
04 13.06 В 3-5
{6}
н/о н/о +5.3 +3.3 87 +2 +2 1011.5 910.2
05 13.06 В 5-8
{8}
н/о н/о +5.7 +3.3 85 +1 +1 1010.3 909.2 0.2
06 13.06 В 5-7
{9}
н/о н/о +5.6 +3.8 88 +1 +1 1009.1 908.1 +5.2 +8.1 3
07 13.06 В 5-9
{9}
н/о н/о +6.3 +4.0 85 +2 +2 1008.3 907.6 0.6
08 13.06 В 4-7
{9}
н/о н/о +6.8 +4.1 83 +3 +3 1008.6 908.1
09 13.06 СВ 4-7
{7}
н/о н/о +8.1 +4.4 77 +5 +5 1008.2 908.1
10 13.06 ЮВ 6-8
{8}
н/о н/о +9.3 +5.4 77 +6 +6 1007.5 907.9
11 13.06 В 5-7
{9}
н/о н/о +11.3 +5.9 69 +9 +9 1006.9 908.0
12 13.06 ЮВ 6-9
{9}
н/о н/о +12.0 +5.8 66 +9 +9 1007.2 908.5
13 13.06 ЮВ 4-5
{10}
н/о н/о +10.5 +5.7 72 +8 +8 1008.4 909.1
14 13.06 ЮВ 5-7
{7}
н/о н/о +12.8 +6.2 64 +11 +11 1007.9 909.4
15 13.06 ЮВ 5-6
{8}
н/о н/о +12.6 +6.6 67 +11 +11 1008.3 909.7
16 13.06 ЮВ 4-6
{7}
н/о н/о +12.3 +7.0 70 +10 +10 1009.1 910.3
17 13.06 ЮВ 6-8
{8}
н/о н/о +13.0 +6.9 66 +11 +11 1009.3 910.7
18 13.06 ЮВ 5-6
{10}
н/о н/о +13.0 +6.7 66 +11 +11 1009.9 911.3 +5.7 +13.9 0.6
19 13.06 ЮВ 2-4
{6}
н/о н/о +11.6 +6.3 70 +11 +11 1011.5 912.3
20 13.06 В 2-4
{4}
н/о н/о +10.6 +5.5 71 +9 +9 1012.1 912.5
21 13.06 СВ 2-4
{5}
н/о н/о +9.2 +5.8 79 +8 +8 1014.1 913.8
22 13.06 ЮВ 2-3
{4}
н/о н/о +8.1 +5.1 81 +6 +6 1015.0 914.3
23 13.06 ЮВ 2-4
{4}
н/о н/о +7.0 +3.8 80 +5 +5 1015.7 914.6
00 14.06 С 1-1
{6}
н/о н/о +5.5 +3.0 84 +4 +4 1016.9 915.1
01 14.06 ЮЗ 1-2
{2}
н/о н/о +3.2 +1.9 91 +2 +2 1017.9 915.2
02 14.06 СВ 1-2
{2}
н/о н/о +3.6 +2.3 91 +2 +2 1017.7 915.2
03 14.06 В 2-4
{4}
н/о н/о +6.8 +5.8 93 +4 +4 1016.9 915.5
04 14.06 В 3-4
{5}
н/о н/о +7.7 +4.9 82 +5 +5 1017.1 916.0
05 14.06 В 3-4
{5}
н/о н/о +9.6 +4.3 70 +7 +7 1016.2 915.8
06 14.06 В 3-5
{5}
н/о н/о +11.1 +4.3 63 +9 +9 1015.7 915.9 +2.9 +13.2
07 14.06 В 4-7
{7}
н/о н/о +12.2 +3.6 56 +10 +10 1015.6 916.1
08 14.06 В 5-9
{9}
н/о н/о +13.3 +2.6 48 +12 +12 1015.6 916.6
09 14.06 ЮВ 5-7
{9}
н/о н/о +14.2 +0.4 39 +13 +13 1015.2 916.5
10 14.06 ЮВ 3-7
{8}
н/о н/о +15.4 +0.7 37 +15 +15 1015.4 917.0
11 14.06 С 2-4
{7}
н/о н/о +16.3 0.0 33 +17 +17 1014.5 916.5 0.1
12 14.06 ЮЗ 2-5
{9}
н/о н/о +17.5 -0.3 30 +18 +18 1014.0 916.4
13 14.06 ЮЗ 2-5
{7}
н/о н/о +17.1 +1.2 34 +17 +17 1014.0 916.3
14 14.06 З 4-6
{8}
н/о н/о +17.3 +2.4 37 +17 +17 1014.0 916.3
15 14.06 З 3-5
{7}
н/о н/о +17.1 +1.8 36 +17 +17 1013.7 916.1
16 14.06 СЗ 4-6
{6}
н/о н/о +17.2 +3.3 39 +17 +17 1013.9 916.2
17 14.06 З 3-5
{7}
н/о н/о +15.2 +3.0 44 +15 +15 1015.0 916.6
18 14.06 СЗ 3-5
{8}
н/о н/о +15.8 +3.2 43 +15 +15 1014.5 916.3 +11.0 +17.9 0.1
19 14.06 З 2-3
{5}
н/о н/о +14.3 +3.7 49 +14 +14 1015.2 916.5
20 14.06 ЮЗ 1-1
{3}
н/о н/о +12.8 +5.4 61 +13 +13 1016.2 916.9
21 14.06 З 1-2
{3}
н/о н/о +11.5 +4.6 63 +12 +12 1017.3 917.5
22 14.06 С 1-1
{2}
н/о н/о +9.8 +4.8 71 +9 +9 1018.1 917.6
23 14.06 СЗ 1-2
{2}
н/о н/о +8.4 +4.8 78 +8 +8 1018.8 917.8
00 15.06 СЗ 1-2
{5}
н/о н/о +7.0 +4.3 83 +6 +6 1019.6 918.0
01 15.06 С 1-1
{2}
н/о н/о +8.0 +4.6 79 +7 +7 1019.3 918.1
02 15.06 штиль 0-1
{2}
н/о н/о +5.2 +3.2 87 +4 +4 1020.5 918.2
03 15.06 -1
{1}
н/о н/о +4.6 +2.9 89 1021.0 918.5
04 15.06 -1
{1}
н/о н/о +4.5 +3.1 91 1021.1 918.5
05 15.06 СВ 1-1
{1}
н/о н/о +11.1 +4.5 64 +11 +11 1018.5 918.4
06 15.06 СВ 1-2
{2}
н/о н/о +13.0 +4.2 55 +13 +13 1017.9 918.5 +4.1 +15.8
07 15.06 Ю 1-3
{3}
н/о н/о +14.6 +3.9 49 +15 +15 1017.4 918.5
08 15.06 В 2-3
{5}
н/о н/о +15.5 +4.4 48 +16 +16 1017.0 918.5 0.1
09 15.06 В 2-3
{5}
н/о н/о +15.7 +5.3 50 +16 +16 1016.8 918.4
10 15.06 СВ 4-6
{8}
н/о н/о +16.1 +5.2 48 +15 +15 1016.5 918.3
11 15.06 ЮВ 2-3
{6}
н/о н/о +17.6 +4.6 42 +18 +18 1015.3 917.7
12 15.06 В 4-9
{9}
н/о н/о +19.3 +3.9 36 +20 +20 1014.2 917.2
13 15.06 ЮВ 5-8
{9}
н/о н/о +19.9 +2.8 32 +20 +20 1013.5 916.7
14 15.06 ЮВ 4-7
{8}
н/о н/о +20.3 +2.7 31 +21 +21 комфорт 1012.6 916.0
15 15.06 ЮВ 4-8
{8}
н/о н/о +20.7 +2.0 29 +21 +21 комфорт 1012.3 915.9
16 15.06 ЮВ 3-7
{8}
н/о н/о +19.5 +2.7 33 +20 +20 1012.3 915.5
17 15.06 СЗ 4-6
{6}
н/о н/о +19.8 +2.9 33 +20 +20 1011.9 915.3
18 15.06 СЗ 4-6
{9}
н/о н/о +18.7 +4.3 39 +19 +19 1012.2 915.2 +13.0 +21.0 0.1
19 15.06 З 3-5
{6}
н/о н/о +16.9 +6.8 51 +17 +17 1012.5 914.9
20 15.06 -2
{5}
н/о н/о +13.8 +5.6 58 1013.6 914.9
21 15.06 СВ 1-1
{2}
н/о н/о +8.9 +4.8 75 +8 +8 1015.7 915.2
22 15.06 С 1-1
{2}
н/о н/о +6.7 +4.4 85 +6 +6 1016.4 915.1
23 15.06 С 1 н/о н/о +5.3 +3.6 89 +4 +4 1016.7 914.9
00 16.06 В 1-1
{6}
н/о н/о +4.8 +3.3 90 +3 +3 1016.8 914.8
01 16.06 С 1-1
{1}
н/о н/о +3.2 +1.9 91 +2 +2 1017.4 914.8
02 16.06 СЗ 1-1
{2}
н/о н/о +3.2 +2.1 92 +2 +2 1017.1 914.5
03 16.06 СЗ 1-2
{2}
н/о н/о +4.6 +3.5 93 +3 +3 1016.3 914.2
04 16.06 штиль 0-1
{1}
н/о н/о +6.9 +5.7 92 +6 +6 1015.3 914.1
05 16.06 СЗ 1-1
{2}
н/о н/о +8.8 +6.4 85 +8 +8 1014.4 913.9
06 16.06 ЮВ 1-3
{3}
н/о н/о +11.4 +6.8 73 +11 +11 1013.2 913.7 +2.8 +18.7
07 16.06 СВ 1-3
{3}
н/о н/о +12.5 +4.8 59 +13 +13 1012.9 913.8
08 16.06 В 3-5
{5}
н/о н/о +13.4 +5.0 57 +12 +12 1012.4 913.7
09 16.06 ЮВ 3-4
{5}
н/о н/о +13.0 +6.2 63 +12 +12 1012.1 913.3
10 16.06 В 3-5
{5}
н/о н/о +12.8 +6.8 67 +12 +12 1012.3 913.4
11 16.06 В 5-7
{7}
н/о н/о +13.6 +7.5 67 +12 +12 1011.8 913.2
12 16.06 В 4-7
{7}
н/о н/о +14.7 +8.4 66 +14 +14 1011.5 913.2
13 16.06 В 3-5
{6}
н/о н/о +14.3 +8.5 68 +13 +13 1011.4 913.0
14 16.06 В 2-4
{5}
н/о н/о +14.5 +6.5 59 +14 +14 1011.1 912.9
15 16.06 СЗ 3-4
{4}
н/о н/о +14.2 +6.4 59 +13 +13 1011.3 912.9
16 16.06 СЗ 2-3
{5}
н/о н/о +14.7 +6.9 59 +15 +15 1011.0 912.8
17 16.06 СЗ 2-4
{5}
н/о н/о +13.7 +6.9 63 +13 +13 1011.3 912.8
18 16.06 СЗ 2-4
{6}
н/о н/о +12.9 +6.8 66 +12 +12 1011.6 912.8 +11.4 +15.1
19 16.06 ЮВ 1-2
{4}
н/о н/о +10.8 +8.6 86 +10 +10 1012.4 912.8 0.6
20 16.06 СЗ 1-2
{3}
н/о н/о +10.7 +8.1 84 +10 +10 1012.6 913.0
21 16.06 ЮЗ 2-4
{4}
н/о н/о +9.7 +7.6 87 +8 +8 1013.1 913.1
22 16.06 СЗ 3-4
{5}
н/о н/о +9.5 +7.6 88 +7 +7 1013.5 913.4
23 16.06 З 2-3
{4}
н/о н/о +9.2 +7.0 86 +7 +7 1013.7 913.5
00 17.06 З 2-3
{5}
н/о н/о +8.4 +6.7 89 +6 +6 1014.1 913.6 0.3
01 17.06 СЗ 2-3
{4}
н/о н/о +8.1 +6.6 90 +6 +6 1014.4 913.7 0.4
02 17.06 СЗ 3-4
{5}
н/о н/о +8.3 +6.0 85 +6 +6 1014.2 913.6 0.1
03 17.06 З 2-3
{4}
н/о н/о +7.8 +5.2 84 +6 +6 1014.5 913.7
04 17.06 СЗ 1-3
{4}
н/о н/о +7.5 +4.7 82 +7 +7 1014.6 913.7 0.3
05 17.06 СВ 1-1
{2}
н/о н/о +8.0 +5.3 83 +7 +7 1014.2 913.5 0.1
06 17.06 С 1-1
{5}
н/о н/о +9.4 +4.7 72 +9 +9 1013.6 913.4 +7.5 +12.9 2
07 17.06 В 2-3
{3}
н/о н/о +11.4 +3.7 59 +11 +11 1012.6 913.2
08 17.06 ЮВ 2-3
{4}
н/о н/о +11.0 +4.0 62 +10 +10 1012.9 913.2
09 17.06 ЮВ 3-6
{6}
н/о н/о +12.9 +2.4 49 +12 +12 1011.6 912.8
10 17.06 ЮВ 4-6
{9}
н/о н/о +13.4 +1.6 45 +12 +12 1011.1 912.5
11 17.06 ЮЗ 4-9
{9}
н/о н/о +14.2 +0.4 39 +13 +13 1010.8 912.5
12 17.06 З 5-8
{9}
н/о н/о +14.6 +1.2 40 +13 +13 1010.6 912.4
13 17.06 Ю 3-5
{8}
н/о н/о +14.7 +1.8 42 +14 +14 1010.1 912.0
14 17.06 ЮВ 2-6
{6}
н/о н/о +14.5 +1.7 42 +14 +14 1009.8 911.7
15 17.06 Ю 2-5
{6}
н/о н/о +13.8 +3.2 49 +14 +14 1010.0 911.6 0.1
16 17.06 Ю 3 н/о н/о +13.5 +3.1 49 +13 +13 1009.4 911.0
17 17.06 Ю 3-5
{7}
н/о н/о +13.7 +4.1 52 +13 +13 1009.1 910.8
18 17.06 Ю 3-7
{9}
н/о н/о +13.2 +3.7 52 +12 +12 1008.9 910.4 +9.5 +15.2 0.1
19 17.06 Ю 3-6
{8}
н/о н/о +12.4 +3.9 56 +11 +11 1009.0 910.3

 

Местоположение метеостанции Гротли (Норвегия): широта 62.02 долгота 7.66 высота над уровнем моря 872 м.

В архиве по умолчанию представлена погода в Гротли за последнюю неделю. Архивные данные за месяц целиком и за предыдущие месяцы, начиная с января 2011 года, Вы можете получить, выбрав интересующий диапазон дат из раскрывающегося списка и нажав кнопку "Ввод!".


*Определитесь, кто Вы:
робот инопланетянин человек

Внимание! Время в таблицах - всемирное. Для получения местного времени необходимо прибавить поправку, которая равна 1 ч.

Смотрите также архив погоды в соседних городах и на ближайших метеорологических станциях:

Погода в Брате (Норвегия) (17 км)
Погода в Тафьорде (Норвегия) (26 км)
Погода в Бьорли (Норвегия) (39 км)
Погода в Марстейне (Норвегия) (49 км)
Погода на Маннене (Норвегия) (49 км)
Погода в Юввассу (Норвегия) (53 км)
Погода в Сонгфельсхутте (Норвегия) (53 км)
Погода в Стрын-Крокене (Норвегия) (59 км)
Погода в Лебергсфелле (Норвегия) (69 км)
Погода в Домбасе (Норвегия) (76 км)

Пояснения к столбцам:

Ветер - указаны скорость ветра в м/с - средняя за 10 мин, порывы в срок и между сроками (в фигурных скобках) и направление, откуда дует ветер: С - северный, СВ - северо-восточный, В - восточный, ЮВ - юго-восточный, Ю - южный, ЮЗ - юго-западный, З - западный, СЗ - северо-западный.
Видимость - горизонтальная дальность видимости в метрах или километрах. При видимости от 1 до 10 км при отсутствии осадков обычно наблюдается дымка, при ухудшении видимости до 1 км и менее - туман. В сухую погоду видимость может ухудшаться дымом, пылью или мглою.
Явления - указаны атмосферные явления, наблюдавшиеся в срок или в последний час перед сроком; фигурными скобками обозначены явления, наблюдавшиеся между сроками (за 1-3 часа до срока); квадратными скобками обозначены град или гололедные отложения с указанием их диаметра в мм.
Облачность - указаны через наклонную черту общая и нижняя облачность в баллах и высота нижней границы облаков в метрах; квадратными скобками обозначены формы облаков: Ci - перистые, Cs - перисто-слоистые, Cc - перисто-кучевые, Ac - высококучевые, As - высокослоистые, Sc - слоисто-кучевые, Ns - слоисто-дождевые, Cu - кучевые, Cb - кучево-дождевые. Подробнее классификацию облаков см. в Атласе облаков (PDF).
T - Температура воздуха - температура, измеренная на высоте 2 м над землей.
Td - Температура точки росы - температура, при понижении до которой содержащийся в воздухе водяной пар достигнет насыщения.
f - Относительная влажность воздуха - влажноcть воздуха, измеренная на высоте 2 м над землей.
Te - Эффективная температура - температура, которую ощущает одетый по сезону человек в тени. Характеристика душности погоды. При расчете учитывается влияние влажности воздуха и скорости ветра на теплоощущения человека.
Tes - Эффективная температура на солнце - температура, которую ощущает человек, с поправкой на солнечный нагрев. Характеристика знойности погоды. Зависит от высоты солнца над горизонтом, облачности и скорости ветра. Ночью, в пасмурную погоду, а также при ветре 12 м/с и более поправка равна нулю.
P - Атмосферное давление - приведенное к уровню моря атмосферное давление.
Po - Атмосферное давление - измеренное на уровне метеостанции атмосферное давление.
Tmin - Минимальная температура - минимум температуры воздуха на высоте 2 м над землей.
Tmax - Максимальная температура - максимум температуры воздуха на высоте 2 м над землей.
R - Количество осадков - Количество выпавших осадков за период времени, мм. При наведении курсора мыши на число - период времени, за который выпало указанное количество осадков.
R24 - Количество осадков - Количество выпавших осадков за 24 часа, мм.
S - Снежный покров - Высота снежного покрова, см. При наведении курсора мыши на число - состояние снежного покрова и степень покрытия местности в баллах.